GW5243 Weather Reports


Display with metric or nautical units.
time (UTC)temp
F
wind
direction
speed
MPH
gust
MPH
rain 1hr
in
rain 24hr
in
rain mn
in
humidity
%
barometer
mb
20260902043021 61 299 0.0 2.0 0.00 0.30 0.00 96 1019.9
20260902041526 61 299 0.0 1.0 0.00 0.30 0.00 96 1019.7
20260902040026 61 299 0.0 2.0 0.00 0.30 0.00 96 1019.6
20260902034526 61 299 0.0 2.0 0.00 0.30 0.30 96 1019.6
20260902033020 61 299 0.0 2.0 0.00 0.30 0.30 96 1019.6
20260902031525 61 299 0.0 2.0 0.00 0.30 0.30 96 1019.7
20260902030007 61 311 0.0 2.0 0.00 0.30 0.30 96 1019.6
20260902024511 61 311 0.0 2.0 0.00 0.30 0.30 96 1019.3
20260902023017 61 311 0.0 2.0 0.01 0.30 0.30 95 1019.2
20260902021522 61 311 0.0 0.0 0.03 0.30 0.30 95 1019.3
20260902020009 61 311 0.0 0.0 0.03 0.30 0.30 95 1019.2
20260902014507 61 309 0.0 2.0 0.03 0.30 0.30 94 1019.1
20260902013013 62 113 0.0 2.0 0.02 0.29 0.29 94 1019.2
20260902011519 62 121 0.0 2.0 0.00 0.27 0.27 93 1019.1
20260902010032 62 92 0.0 2.0 0.00 0.27 0.27 92 1019.3
20260902004509 62 121 0.0 2.0 0.00 0.27 0.27 91 1018.9
20260902003016 62 83 0.0 2.0 0.00 0.27 0.27 92 1018.8
20260902001518 62 72 0.0 2.0 0.00 0.27 0.27 92 1018.6
20260902000035 63 84 0.0 2.0 0.00 0.27 0.27 93 1018.4
20260901234525 63 138 0.0 2.0 0.00 0.27 0.27 93 1018.3
20260901233010 63 140 0.0 2.0 0.00 0.27 0.27 92 1018.2
20260901231513 63 86 0.0 2.0 0.00 0.27 0.27 92 1018.4
20260901230021 63 107 0.0 2.0 0.00 0.27 0.27 92 1018.2
20260901224529 64 101 0.0 3.0 0.00 0.27 0.27 91 1018.3
20260901223029 64 89 0.0 2.0 0.00 0.27 0.27 91 1018.4
20260901221513 64 71 0.0 2.0 0.00 0.27 0.27 90 1018.4
20260901220027 64 112 0.0 2.0 0.00 0.27 0.27 90 1018.2
20260901214526 65 79 0.0 2.0 0.00 0.27 0.27 88 1018.1
20260901213027 66 93 0.0 2.0 0.00 0.27 0.27 88 1018.0
20260901211510 66 139 0.0 3.0 0.00 0.27 0.27 88 1017.9
20260901210015 66 72 0.0 2.0 0.00 0.27 0.27 88 1017.9
20260901204525 66 148 0.0 2.0 0.00 0.27 0.27 88 1017.7
20260901203035 66 147 0.0 2.0 0.00 0.27 0.27 87 1017.4
20260901201533 65 76 0.0 3.0 0.00 0.27 0.27 88 1017.6
20260901200016 65 78 1.0 3.0 0.00 0.27 0.27 88 1017.6
20260901194519 66 89 1.0 3.0 0.00 0.27 0.27 88 1017.6
20260901193027 65 65 1.0 3.0 0.00 0.27 0.27 88 1017.6
20260901191528 65 69 1.0 3.0 0.00 0.27 0.27 89 1017.7
20260901190029 65 79 1.0 2.0 0.00 0.27 0.27 89 1017.8
20260901184516 65 136 0.0 2.0 0.00 0.27 0.27 89 1018.0
20260901183027 64 40 0.0 2.0 0.00 0.27 0.27 89 1018.0
20260901181535 64 148 0.0 2.0 0.00 0.27 0.27 88 1017.8
20260901180030 65 161 0.0 2.0 0.00 0.27 0.27 87 1017.8
20260901174533 65 146 0.0 2.0 0.00 0.27 0.27 85 1017.6
20260901173019 64 220 0.0 2.0 0.00 0.27 0.27 86 1017.6
20260901171529 63 45 0.0 2.0 0.00 0.27 0.27 88 1017.6
20260901170056 62 94 0.0 3.0 0.00 0.27 0.27 88 1017.7
20260901164531 62 72 1.0 2.0 0.00 0.27 0.27 88 1017.5
20260901163038 62 155 0.0 2.0 0.00 0.27 0.27 90 1017.5
20260901161523 61 84 0.0 2.0 0.00 0.27 0.27 92 1017.7
20260901160026 61 86 0.0 2.0 0.00 0.27 0.27 91 1018.1
20260901154530 61 106 0.0 3.0 0.00 0.27 0.27 91 1018.2
20260901153031 61 49 1.0 3.0 0.00 0.27 0.27 89 1018.2
20260901151531 61 29 1.0 2.0 0.00 0.27 0.27 89 1018.2
20260901150040 61 30 0.0 3.0 0.00 0.27 0.27 90 1017.9
20260901144528 61 58 0.0 3.0 0.00 0.27 0.27 92 1017.7
20260901143030 60 89 0.0 2.0 0.00 0.27 0.27 92 1017.7
20260901141517 60 51 0.0 2.0 0.00 0.27 0.27 92 1017.8
20260901140024 60 163 0.0 4.0 0.03 0.27 0.27 93 1017.6
20260901134530 60 56 0.0 2.0 0.03 0.27 0.27 95 1017.7
20260901133032 59 238 0.0 3.0 0.06 0.27 0.27 95 1017.6
20260901131521 59 36 0.0 2.0 0.08 0.27 0.27 95 1018.0
20260901130022 58 34 1.0 3.0 0.10 0.24 0.24 95 1017.8
20260901124527 58 86 0.0 2.0 0.13 0.24 0.24 95 1018.1
20260901123036 58 36 0.0 2.0 0.13 0.21 0.21 95 1018.3
20260901121530 58 165 0.0 3.0 0.14 0.19 0.19 94 1018.2
20260901120017 59 101 0.0 2.0 0.14 0.14 0.14 95 1018.3
20260901114537 59 33 0.0 2.0 0.11 0.11 0.11 95 1018.3
20260901113014 59 33 0.0 2.0 0.08 0.08 0.08 95 1018.3
20260901111510 59 33 0.0 2.0 0.05 0.05 0.05 94 1018.2
20260901110016 59 44 0.0 2.0 0.00 0.00 0.00 94 1017.8
20260901104521 59 111 0.0 2.0 0.00 0.00 0.00 93 1017.8
20260901103010 59 279 1.0 4.0 0.00 0.00 0.00 93 1017.3
20260901101506 59 84 0.0 2.0 0.00 0.00 0.00 93 1017.4
20260901100013 59 84 0.0 2.0 0.00 0.00 0.00 93 1017.2
20260901094529 59 112 0.0 1.0 0.00 0.00 0.00 93 1016.9
20260901093027 59 112 0.0 0.0 0.00 0.00 0.00 93 1017.0
20260901091505 59 112 0.0 2.0 0.00 0.00 0.00 93 1017.2
20260901090011 59 113 0.0 2.0 0.00 0.00 0.00 93 1016.9
20260901084513 59 71 0.0 2.0 0.00 0.00 0.00 93 1017.2
20260901083025 59 101 0.0 2.0 0.00 0.00 0.00 93 1017.2
20260901081528 59 9 0.0 2.0 0.00 0.00 0.00 94 1017.4
20260901080004 59 9 0.0 0.0 0.00 0.00 0.00 94 1017.4
20260901074518 59 9 0.0 1.0 0.00 0.00 0.00 93 1017.4
20260901073020 59 31 0.0 1.0 0.00 0.00 0.00 94 1017.5
20260901071529 58 32 0.0 2.0 0.00 0.00 0.00 94 1017.4
20260901070033 58 351 0.0 0.0 0.00 0.00 0.00 94 1017.5
20260901064511 58 351 0.0 0.0 0.00 0.00 0.00 94 1017.9
20260901063018 58 351 0.0 0.0 0.00 0.00 0.00 94 1017.6
20260901061521 58 351 0.0 0.0 0.00 0.00 0.00 95 1018.0
20260901060030 57 351 0.0 0.0 0.00 0.00 0.00 95 1018.2
20260901054529 57 351 0.0 0.0 0.00 0.00 0.00 95 1018.1
20260901053011 57 351 0.0 0.0 0.00 0.00 0.00 95 1018.1
20260901051520 56 351 0.0 0.0 0.00 0.00 0.00 96 1018.3
20260901050026 56 351 0.0 0.0 0.00 0.00 0.00 95 1018.3
20260901044535 56 351 0.0 0.0 0.00 0.00 0.00 94 1018.2